Date String (YYYY-MM-DD hh:mm:ss) UTC,Instrument flags,Ambient pressure (hPa),Sample flow (lpm),Bypass flow (lpm),Sample temperature (°C),Ambient temperature (°C),ASC tube jacket temperature (°C),LED temperature (°C),Box temperature (°C),Sample RH (%),Span deviation,Mass concentration (μg/m³),Mass concentration (μg/m³),Mass concentration (μg/m³)
DateTimeUTC,F1_M11,P_M11,Q1_M11,Q2_M11,T1_M11,T2_M11,T3_M11,T4_M11,T5_M11,U1_M11,ZSPAN_M11,X2_M11,X0_M11,X1_M11
2023-05-25 19:00:00,,0829.2,5.00,0.00,29.3,27.6,00.0,37.6,31.0,27.3,0002.8,0012.16,0021.94,0011.12
2023-05-25 19:01:00,,0829.2,4.99,0.00,29.3,27.7,00.0,37.6,31.0,27.6,0002.7,0012.15,0021.69,0011.09
2023-05-25 19:02:00,,0829.2,4.99,0.00,29.3,27.8,00.0,37.6,31.0,27.7,0002.8,0012.05,0021.65,0011.03
2023-05-25 19:03:00,,0829.2,5.00,0.00,29.3,27.9,00.0,37.6,31.0,27.3,0002.8,0011.91,0021.42,0010.93
2023-05-25 19:04:00,,0829.2,5.00,0.00,29.4,27.9,00.0,37.6,31.1,27.4,0002.8,0011.77,0021.52,0010.81
2023-05-25 19:05:00,,0829.3,5.00,0.00,29.4,28.0,00.0,37.7,31.1,27.7,0002.6,0011.70,0022.17,0010.70
2023-05-25 19:06:00,,0829.2,5.00,0.00,29.4,28.1,00.0,37.7,31.1,27.1,0002.7,0011.63,0022.31,0010.64
2023-05-25 19:07:00,,0829.3,5.00,0.00,29.4,28.1,00.0,37.7,31.1,26.5,0002.7,0011.52,0022.38,0010.54
2023-05-25 19:08:00,,0829.2,4.99,0.00,29.4,27.2,00.0,37.6,31.0,26.7,0002.7,0011.43,0023.86,0010.45
2023-05-25 19:09:00,,0829.2,5.01,0.00,29.4,25.8,00.0,37.6,30.9,27.4,0002.7,0011.36,0024.11,0010.34
2023-05-25 19:10:00,,0829.2,5.01,0.00,29.3,25.7,00.0,37.5,30.8,26.5,0002.6,0011.34,0024.62,0010.30
2023-05-25 19:11:00,,0829.2,5.01,0.00,29.3,25.9,00.0,37.5,30.7,26.9,0002.7,0011.31,0025.09,0010.27
2023-05-25 19:12:00,,0829.1,4.99,0.00,29.2,26.2,00.0,37.5,30.7,27.1,0002.7,0011.22,0024.66,0010.19
2023-05-25 19:13:00,,0829.2,5.00,0.00,29.2,26.5,00.0,37.5,30.8,27.2,0002.7,0011.13,0024.51,0010.10
2023-05-25 19:14:00,,0829.2,5.00,0.00,29.2,26.7,00.0,37.5,30.8,27.3,0002.7,0011.08,0024.86,0010.00
2023-05-25 19:15:00,,0829.2,4.99,0.00,29.2,27.0,00.0,37.5,30.8,27.5,0002.7,0010.99,0025.72,0009.91
2023-05-25 19:16:00,,0829.2,4.99,0.00,29.2,27.2,00.0,37.6,30.9,29.2,0002.7,0010.91,0024.84,0009.87
2023-05-25 19:17:00,,0829.2,4.99,0.00,29.2,27.4,00.0,37.6,30.9,27.3,0002.7,0010.89,0024.44,0009.84
2023-05-25 19:18:00,,0829.2,5.00,0.00,29.3,27.5,00.0,37.6,30.9,26.9,0002.7,0010.88,0024.43,0009.80
2023-05-25 19:19:00,,0829.2,5.00,0.00,29.3,27.7,00.0,37.6,31.0,27.1,0002.6,0010.87,0023.39,0009.79
2023-05-25 19:20:00,,0829.1,5.00,0.00,29.3,27.8,00.0,37.6,31.0,28.3,0002.6,0010.89,0022.33,0009.83
2023-05-25 19:21:00,,0829.2,5.01,0.00,29.3,27.9,00.0,37.6,31.0,28.0,0002.7,0010.95,0022.55,0009.92
2023-05-25 19:22:00,,0829.1,5.01,0.00,29.3,28.0,00.0,37.6,31.1,27.9,0002.6,0011.02,0023.12,0009.95
2023-05-25 19:23:00,,0829.1,4.99,0.00,29.4,28.0,00.0,37.6,31.1,28.4,0002.6,0011.09,0023.79,0010.02
2023-05-25 19:24:00,,0829.1,4.99,0.00,29.4,28.1,00.0,37.7,31.1,28.5,0002.7,0011.21,0024.24,0010.13
2023-05-25 19:25:00,,0829.1,4.99,0.00,29.4,28.2,00.0,37.7,31.2,29.8,0002.8,0011.25,0024.10,0010.19
2023-05-25 19:26:00,,0829.1,5.00,0.00,29.5,27.5,00.0,37.7,31.1,29.3,0002.8,0011.37,0023.52,0010.29
2023-05-25 19:27:00,,0829.1,5.00,0.00,29.4,26.0,00.0,37.6,30.9,29.7,0002.9,0011.47,0023.58,0010.36
2023-05-25 19:28:00,,0829.1,5.00,0.00,29.4,25.7,00.0,37.5,30.8,29.1,0002.9,0011.47,0023.60,0010.39
2023-05-25 19:29:00,,0829.1,5.01,0.00,29.3,25.9,00.0,37.5,30.7,28.7,0002.9,0011.52,0023.34,0010.46
2023-05-25 19:30:00,,0829.1,5.00,0.00,29.3,26.2,00.0,37.5,30.7,28.4,0003.0,0011.54,0023.10,0010.50
2023-05-25 19:31:00,,0829.0,5.00,0.00,29.2,26.5,00.0,37.5,30.8,28.3,0002.9,0011.59,0023.40,0010.51
2023-05-25 19:32:00,,0829.0,5.00,0.00,29.2,26.7,00.0,37.6,30.8,28.5,0002.9,0011.50,0022.71,0010.44
2023-05-25 19:33:00,,0829.0,4.99,0.00,29.3,27.0,00.0,37.6,30.9,28.2,0002.8,0011.48,0021.54,0010.43
2023-05-25 19:34:00,,0829.0,5.00,0.00,29.3,27.2,00.0,37.6,30.9,28.1,0002.8,0011.46,0020.49,0010.42
2023-05-25 19:35:00,,0829.0,5.00,0.00,29.3,27.4,00.0,37.6,30.9,27.7,0002.7,0011.48,0020.13,0010.40
2023-05-25 19:36:00,,0829.0,5.00,0.00,29.3,27.6,00.0,37.6,31.0,28.0,0002.6,0011.48,0020.49,0010.40
2023-05-25 19:37:00,,0829.0,5.00,0.00,29.3,27.7,00.0,37.6,31.0,28.7,0002.6,0011.51,0020.24,0010.43
2023-05-25 19:38:00,,0829.0,5.00,0.00,29.3,27.8,00.0,37.6,31.0,29.3,0002.5,0011.54,0020.56,0010.48
2023-05-25 19:39:00,,0829.0,5.00,0.00,29.4,27.9,00.0,37.6,31.1,29.6,0002.5,0011.67,0021.27,0010.57
2023-05-25 19:40:00,,0828.9,5.00,0.00,29.4,28.0,00.0,37.6,31.1,28.9,0002.5,0011.75,0022.48,0010.62
2023-05-25 19:41:00,,0829.0,4.99,0.00,29.4,28.1,00.0,37.7,31.1,28.4,0002.6,0011.79,0022.13,0010.68
2023-05-25 19:42:00,,0829.0,5.00,0.00,29.4,28.1,00.0,37.7,31.1,27.9,0002.6,0011.86,0022.02,0010.75
2023-05-25 19:43:00,,0829.0,5.00,0.00,29.5,28.2,00.0,37.7,31.2,28.0,0002.7,0011.94,0022.01,0010.85
2023-05-25 19:44:00,,0829.0,5.00,0.00,29.5,28.1,00.0,37.7,31.2,27.8,0002.8,0011.98,0022.17,0010.89
2023-05-25 19:45:00,,0829.0,4.99,0.00,29.5,26.9,00.0,37.7,31.0,28.2,0002.8,0012.03,0022.78,0010.94
2023-05-25 19:46:00,,0829.0,5.00,0.00,29.4,25.8,00.0,37.6,30.9,29.2,0002.8,0012.10,0023.03,0011.03
2023-05-25 19:47:00,,0829.0,5.01,0.00,29.4,25.7,00.0,37.6,30.8,29.2,0002.9,0012.20,0023.17,0011.13
2023-05-25 19:48:00,,0828.9,5.01,0.00,29.3,25.9,00.0,37.6,30.7,28.2,0002.9,0012.24,0023.26,0011.19
2023-05-25 19:49:00,,0828.9,4.99,0.00,29.3,26.2,00.0,37.6,30.7,28.7,0003.0,0012.33,0023.64,0011.25
2023-05-25 19:50:00,,0828.9,4.98,0.00,29.2,26.6,00.0,37.6,30.8,29.3,0003.1,0012.34,0023.43,0011.27
2023-05-25 19:51:00,,0828.9,5.00,0.00,29.2,26.8,00.0,37.6,30.9,28.9,0003.0,0012.37,0022.47,0011.29
2023-05-25 19:52:00,,0828.9,5.01,0.00,29.3,27.1,00.0,37.6,30.9,29.0,0003.0,0012.40,0022.67,0011.34
2023-05-25 19:53:00,,0828.9,5.01,0.00,29.3,27.3,00.0,37.6,30.9,29.6,0002.9,0012.38,0023.57,0011.37
2023-05-25 19:54:00,,0828.9,5.00,0.00,29.3,27.5,00.0,37.6,31.0,29.3,0002.9,0012.42,0024.14,0011.39
2023-05-25 19:55:00,,0829.0,4.99,0.00,29.3,27.6,00.0,37.6,31.0,29.5,0002.9,0012.44,0025.09,0011.43
2023-05-25 19:56:00,,0828.9,4.99,0.00,29.3,27.8,00.0,37.6,31.1,28.8,0003.0,0012.49,0025.05,0011.51
2023-05-25 19:57:00,,0828.8,5.00,0.00,29.4,27.9,00.0,37.6,31.1,28.8,0003.0,0012.51,0025.23,0011.54
2023-05-25 19:58:00,,0828.8,5.00,0.00,29.4,28.0,00.0,37.7,31.1,28.9,0003.0,0012.53,0024.89,0011.58
2023-05-25 19:59:00,,0828.8,5.00,0.00,29.4,28.1,00.0,37.7,31.1,29.5,0002.9,0012.54,0025.06,0011.58
